Regional Weather Roundup
Issued by NWS State College, PA

Home | Current Version | Previous Version | Text Only | Print | Product List | Glossary Off
Versions: 1 2 3 4 5 6 7 8 9 10 11 12 13 14 15 16 17 18 19 20 21 22 23 24 25 26 27 28 29 30 31 32 33 34 35 36 37 38 39 40 41 42 43 44 45 46 47 48 49 50

348
ASUS41 KCTP 161003
RWRCTP

REGIONAL WEATHER ROUNDUP
NATIONAL WEATHER SERVICE STATE COLLEGE PA
500 AM EST SAT DEC 16 2017

Note: "fair" indicates few or no clouds below 12,000 feet with no
significant weather and/or obstructions to visibility.

* = STATION THAT DOES NOT REPORT PRECIPITATION /E.G. RAIN...SNOW...ETC/
    THUNDER OR FOG.

PAZ002>004-007>009-013>016-020>023-029>032-161100-
WESTERN PENNSYLVANIA

CITY           SKY/WX    TMP DP  RH WIND       PRES   REMARKS
ERIE           LGT SNOW  27  23  85 SW17      29.91S FOG     WCI  14
MEADVILLE      LGT SNOW  25  21  85 SW12      29.91S FOG     WCI  14
FRANKLIN*      LGT SNOW  25  20  81 SW13      29.91F WCI  14
NEW CASTLE     FLURRIES  29  23  78 SW9       29.98S
BEAVER COUNTY  NOT AVBL
BUTLER*        FLURRIES  27  20  75 SW12      29.97F
PITTSBURGH INT FLURRIES  31  20  63 SW10G21   29.99F
PITTSBURGH     CLOUDY    28  16  60 SW15G23   29.99F
INDIANA*       MOCLDY    27  19  74 W14       30.00S
LATROBE        MOCLDY    27  18  69 SW15      30.01F WCI  15
WASHINGTON CO* FLURRIES  29  21  72 SW13G20   30.05F
$$

PAZ004>006-010>012-017>019-024>028-033>037-041-042-045-046-049>053-161100-
CENTRAL PENNSYLVANIA

CITY           SKY/WX    TMP DP  RH WIND       PRES   REMARKS
BRADFORD       LGT SNOW  22  18  85 SW9G18    29.83S FOG     WCI  12
DUBOIS         CLOUDY    24  16  71 W18       29.89S HAZE    WCI  10
CLEARFIELD     CLOUDY    26  18  71 SW12G21   29.91F
JOHNSTOWN      CLOUDY    23  15  71 SW16      29.90S WCI  10
ALTOONA        CLEAR     27  16  63 W18       29.94F WCI  14
STATE COLLEGE  CLOUDY    26  18  70 W17G24    29.93S WCI  13
WILLIAMSPORT   CLOUDY    16  10  77 NE3       29.95F
SELINSGROVE    MOCLDY    22  15  75 SW3       29.97F
FT INDIANTOWN  MOCLDY    27  15  62 SW8       29.98S
CAPITAL CITY   CLOUDY    29  13  51 W3        30.01S
HARRISBURG     MOCLDY    25  19  78 CALM      30.01S
YORK           MOCLDY    28  15  58 SW7       30.01S
$$

PAZ038>040-043-044-047-048-054-055-060>062-067>071-161100-
EASTERN PENNSYLVANIA

CITY           SKY/WX    TMP DP  RH WIND       PRES   REMARKS
SCRANTON       CLEAR     21  12  68 SW6       29.91S WCI  13
MOUNT POCONO   CLEAR     17  11  77 W17       29.83R WCI   1
ALLENTOWN      CLEAR     19  13  77 W7        29.97S WCI  10
QUAKERTOWN*    SUNNY     21  16  79 SW5       29.98S WCI  15
READING        CLEAR     23  17  78 SW7       29.98F WCI  15
LANCASTER      PTCLDY    15  14  95 CALM      30.01S FOG
COATESVILLE    SUNNY     21  18  86 SW5       30.01S WCI  15
POTTSTOWN      CLEAR     23  17  78 SW5       30.02F
BLUE BELL      CLEAR     19  18  93 CALM      30.03F
DOYLESTOWN     CLEAR     20  15  81 SW7       29.98S WCI  11
WILLOW GROVE   NOT AVBL
NORTH PHILA    CLEAR     28  17  63 SW10      30.04S
PHILADELPHIA   PTCLDY    21  16  81 SW7       30.05F WCI  12
$$




USA.gov is the U.S. government's official web portal to all federal, state and local government web resources and services.